sat.trackr.live / text

‹ back to catalog

STARLINK-30498

NORAD 57971 · 2023-151H

PAYLOAD ACTIVE UNKNOWN

§ Identity

Operator
Country
US
Launch date
2023-09-30
Launch site
AFETR
Launch vehicle
Mass (kg)
RCS (m²)

Purposes: comms

External: N2YO · Heavens-Above · Gunter

§ Orbital elements

Epoch: 2026-05-25T00:58:01.120800Z

Period
94.27 min
Inclination
43.0023°
Eccentricity
0.0001843
Mean motion
15.27595411 rev/d
Perigee alt
481.7 km
Apogee alt
484.3 km
Semi-major
6,861.1 km
B*
2.1461e-4
RAAN
264.7715°
Arg perigee
264.3098°
Mean anomaly
95.7544°
Rev number
14,744

§ Raw data

STARLINK-304981 57971U 23151H   26145.04029075  .00005651  00000+0  21461-3 0  99992 57971  43.0023 264.7715 0001843 264.3098  95.7544 15.27595411147447

JSON: /api/v1/satellites/57971 · /tle

For live sub-satellite position, see the globe view (requires WebGL).

§ Visibility from observer

Set your observer location to see the next 7 days of passes ≥ 10°. The values pass through the URL so the page stays shareable.

No JS? Fill the form by hand. The geolocation button needs JavaScript.